Tracking 30970 objects as of 3-Jul-2025
HD Live streaming from Space Station
objects crossing your sky now

STARLINK-30797

Track STARLINK-30797 now!
10-day predictions
STARLINK-30797 is classified as:


NORAD ID: 58154
Int'l Code: 2023-166E
Perigee: 481.5 km
Apogee: 483.3 km
Inclination: 53.2 °
Period: 94.1 minutes
Semi major axis: 6853 km
RCS: Unknown
Launch date: October 29, 2023
Source: United States (US)
Launch site: AIR FORCE WESTERN TEST RANGE (AFWTR)
Your satellite tracking list
FENGYUN 1C DEB
Track 1 satellite(s)




NASA's NSSDC Master Catalog

Two Line Element Set (TLE):
1 58154U 23166E   25183.59884468  .00000398  00000-0  25566-4 0  9990
2 58154  53.1610 301.4340 0001272  87.9325 272.1822 15.30188677 94735
Source of the keplerian elements: AFSPC